Location: Unspecified
(0.0000°N, 0.0000°E)
Time: 23:43:03
(UTC+00:00)

Courier 1B Rocket - Pass Details

Date: 04 October 2020
Orbit: 920 x 1202 km, 28.2° (Epoch: 28 October)

Event Time Altitude Azimuth Distance (km) Brightness Sun altitude
Rises 23:56:58 0° 236° (SW) 4,075 - -85.1°
Reaches altitude 10° 23:59:52 10° 234° (SW) 3,090 - -84.8°
Maximum altitude 00:07:32 73° 150° (SSE) 1,176 - -83.5°
Drops below altitude 10° 00:14:42 10° 66° (ENE) 2,901 - -82.1°
Sets 00:17:21 0° 64° (ENE) 3,813 - -81.6°
